This is the latest recevied weather packets stored in our database for station/object KB0Y. If no packets are shown the sender has not sent any weather packets the latest 10 day(s).
| Time | Temp. | Humidity | Pressure | Rain* | Wind** | Luminosity | Snow |
|---|---|---|---|---|---|---|---|
| 1778191108 | 25° C | 97% | 1016.6 hPa | 0 mm | - | 82 W/m² | - |
| 1778190805 | 25° C | 97% | 1016.6 hPa | 0 mm | - | 82 W/m² | - |
| 1778190502 | 25° C | 97% | 1016.6 hPa | 0 mm | - | 115 W/m² | - |
| 1778190200 | 25° C | 97% | 1016.6 hPa | 0 mm | - | 131 W/m² | - |
| 1778189894 | 25° C | 97% | 1016.6 hPa | 0 mm | - | 152 W/m² | - |
| 1778189592 | 25° C | 97% | 1016.6 hPa | 0 mm | - | 152 W/m² | - |
| 1778189289 | 25° C | 96% | 1016.6 hPa | 0 mm | - | 135 W/m² | - |
| 1778188985 | 25° C | 96% | 1016.6 hPa | 0 mm | - | 138 W/m² | - |
| 1778188681 | 25° C | 96% | 1016.6 hPa | 0 mm | - | 140 W/m² | - |
| 1778188378 | 25° C | 96% | 1016.6 hPa | 0 mm | - | 180 W/m² | - |
| 1778188075 | 25° C | 95% | 1016.6 hPa | 0 mm | - | 188 W/m² | - |
| 1778187772 | 25° C | 94% | 1016.6 hPa | 0 mm | - | 205 W/m² | - |
| 1778187468 | 25° C | 94% | 1016.9 hPa | 0 mm | - | 186 W/m² | - |
| 1778187165 | 23.89° C | 93% | 1016.6 hPa | 0 mm | - | 285 W/m² | - |
| 1778186861 | 23.89° C | 93% | 1016.2 hPa | 0 mm | - | 301 W/m² | - |
| 1778186559 | 23.33° C | 94% | 1016.6 hPa | 0 mm | - | 205 W/m² | - |
| 1778186256 | 23.33° C | 95% | 1016.9 hPa | 0 mm | - | 242 W/m² | - |
| 1778185953 | 23.33° C | 96% | 1016.6 hPa | 0 mm | - | 267 W/m² | - |
| 1778185650 | 23.33° C | 99% | 1016.9 hPa | 0 mm | - | 275 W/m² | - |
| 1778185346 | 23.33° C | 99% | 1016.9 hPa | 0 mm | - | 235 W/m² | - |
| 1778185041 | 23.33° C | 99% | 1016.9 hPa | 0 mm | - | 190 W/m² | - |
| 1778184738 | 23.33° C | 99% | 1016.6 hPa | 0 mm | - | 212 W/m² | - |
| 1778184435 | 23.33° C | 99% | 1017.2 hPa | 0 mm | - | 266 W/m² | - |
| 1778184131 | 23.33° C | 99% | 1017.2 hPa | 0 mm | - | 248 W/m² | - |
| 1778183827 | 23.33° C | 99% | 1017.2 hPa | 0 mm | - | 169 W/m² | - |
* Rain latest hour (hover to see other rain measurements)
** Current wind speed in m/s (hover to see current wind gust speed)